Погода в Зеленом

Украина / Днепропетровская область     48°01′06″N   34°12′11″E
темп.,
°C
ветер,
м/с
пор.,
м/с
влажн.,
%
обл.,
%
осадки,
мм/ч
давл.,
гПа
погр.,
м
10 апреля, сб
сб1000:00+4с496594 0.0 1026171
03:00+3с37705 0.0 1026136
06:00+2ссв46700 0.0 102697
09:00+8ссв46510 0.0 1027392
12:00+11св443688 0.0 10262158
15:00+12ссв443491 0.0 10252108
18:00+11ссв454036 0.0 10251303
21:00+7с46495 0.0 102687
11 апреля, вс
вс1100:00+6с48543 0.0 1026142
03:00+5ссв47620 0.0 1027114
06:00+4ссв49680 0.0 1027149
09:00+9св610520 0.0 1027639
12:00+13ссв893945 0.0 10261323
15:00+14ссв8934100 0.0 10251483
18:00+13ссв61040100 0.0 1024776
21:00+10ссв51150100 0.0 1024339
12 апреля, пн
пн1200:00+9ссв51054100 0.0 1023305
03:00+8ссв51059100 0.0 1022380
06:00+8ссв61166100 0.1 1021474
09:00+7ссв4888100 1.3 1021277
12:00+8ссв3591100 1.1 1020249
15:00+9всв118794 1.1 1020263
18:00+11юз118076 0.0 1020530
21:00+9зсз118987 0.0 102110
13 апреля, вт
вт1300:00+9ююз2289100 0.0 102020
03:00+8зюз119299 0.0 102110
06:00+7ююв1194100 0.0 102110
09:00+11ююз228277 0.0 1021357
12:00+14ююз336192 0.0 10211200
15:00+16ю335127 0.0 10201429
18:00+15ю34525 0.0 10191188
21:00+11ююв357136 0.0 102066
14 апреля, ср
ср1400:00+11юз357374 0.0 1019136
03:00+8юз22845 0.0 101932
06:00+7юз22865 0.0 101915
09:00+11ююв347075 0.0 1019461
12:00+15ююв67565 0.0 10181281
15:00+16ююв7848100 0.0 10161687
18:00+15ююв575498 0.0 10151400
21:00+11ююв5971100 0.0 1015387